Wind_Speed
16 16 17 16 17 18 18 18 18 18 18 18 19 19 19 20 21 22 21 21 21 21 21 21 21 20 20 19 19 19 19 19 17 16 16 16 16 16 15 15 14 14 13 13 12 11 10 10 9
18 18 18 18 19 19 18 19 20 19 20 21 21 21 21 21 23 23 22 22 22 22 23 23 23 22 22 21 21 21 20 20 19 18 17 17 17 17 17 16 16 15 14 14 14 13 12 11 10
19 20 20 20 21 20 20 21 21 21 22 23 24 24 23 23 24 25 25 25 24 24 24 25 25 25 24 23 23 22 22 21 21 20 19 18 17 17 18 17 17 17 16 15 14 14 13 12 12
20 21 22 23 22 22 23 23 23 24 25 25 26 26 25 25 26 27 27 27 27 27 26 27 27 27 27 26 25 24 24 23 23 22 22 21 20 19 19 19 19 18 18 17 16 16 15 14 14
22 23 24 25 25 24 25 26 26 27 27 28 29 28 28 28 28 29 29 29 30 29 29 29 29 29 29 29 28 27 27 26 25 24 23 23 22 21 21 21 21 20 20 19 18 18 18 17 16
24 25 26 26 27 27 27 27 29 29 29 30 31 31 31 30 31 31 30 31 32 32 32 31 31 32 31 31 30 30 29 28 28 27 26 25 24 23 23 23 22 22 21 21 20 19 19 19 18
26 27 27 27 29 29 28 29 31 31 31 32 33 33 33 32 33 33 33 33 34 33 33 33 33 33 34 33 33 32 31 31 30 30 29 28 28 26 25 25 24 24 23 23 21 21 21 20 20
27 28 28 29 30 30 29 30 32 32 33 33 34 34 34 34 34 34 34 35 35 35 35 35 35 35 35 36 35 35 34 33 33 32 32 31 31 29 27 27 26 26 25 24 24 23 22 22 21
27 29 29 30 31 31 31 32 33 33 34 34 34 35 34 35 36 35 36 36 36 36 37 38 38 37 38 38 38 38 37 36 35 35 34 34 33 32 31 29 28 28 28 26 26 25 24 23 23
28 30 30 30 31 32 32 32 34 34 34 34 35 35 35 36 37 37 37 37 38 38 39 39 40 40 40 40 40 40 40 39 38 37 36 35 35 34 33 32 30 31 30 29 28 27 26 25 24
29 30 30 31 32 33 34 33 34 35 35 35 34 34 35 36 37 38 38 38 39 39 39 40 41 41 41 42 41 41 42 41 40 40 38 38 37 36 35 34 33 33 33 31 30 29 28 27 26
30 30 30 31 33 33 34 34 34 35 35 34 34 35 35 36 37 38 39 39 39 39 39 40 41 42 42 42 43 42 43 43 42 42 41 40 39 38 37 36 35 34 35 34 32 31 30 28 28
30 30 30 31 32 33 33 34 34 35 34 33 34 35 36 36 37 39 40 40 40 40 40 41 42 43 43 44 44 44 44 44 44 44 42 42 41 40 38 38 37 37 36 35 34 33 32 31 30
30 30 30 30 31 32 33 33 34 34 34 34 34 35 36 37 37 38 39 40 40 40 40 41 42 43 44 45 45 45 45 44 45 45 44 44 43 42 41 40 39 38 38 37 36 35 34 33 32
30 30 30 30 31 31 32 33 33 34 34 34 34 35 35 37 38 38 38 39 39 40 40 41 42 44 45 45 46 47 47 46 45 45 46 45 45 44 43 42 42 40 39 39 38 37 36 35 34
29 30 30 29 30 31 32 32 33 34 34 34 34 34 35 37 37 38 38 39 39 40 40 40 41 43 45 45 46 47 48 47 46 46 46 46 46 46 45 45 44 43 41 41 40 40 38 37 37
30 30 30 30 30 32 33 33 32 33 34 34 34 34 35 36 37 38 39 39 40 40 40 41 41 43 44 45 46 47 48 48 47 47 46 47 47 47 46 45 44 42 42 41 41 41 40 38 38
29 29 30 30 30 31 32 33 32 32 33 33 34 34 35 36 36 37 37 38 39 39 40 41 41 42 43 44 46 47 48 48 47 47 47 47 47 47 47 47 45 44 43 42 42 42 41 40 39
29 31 31 31 30 31 32 32 31 31 31 32 33 34 34 34 34 35 36 37 38 38 39 40 40 41 42 44 45 46 47 48 47 47 47 47 48 49 48 48 47 45 44 43 42 42 41 41 41
30 31 31 31 30 32 32 31 29 29 30 31 33 33 33 33 32 34 35 36 37 37 38 39 40 40 40 42 43 45 46 47 47 46 46 47 48 49 48 48 47 46 46 45 43 43 43 42 42
30 31 31 32 31 32 32 30 28 28 29 31 32 32 32 33 34 34 35 36 36 36 37 37 39 40 40 41 43 44 45 46 47 45 46 46 47 48 48 48 47 47 47 45 44 44 44 43 42
31 31 31 32 32 31 31 31 27 28 28 30 31 31 31 32 34 34 34 35 35 35 35 36 38 39 39 40 42 43 44 45 46 46 46 45 45 46 47 48 48 48 47 47 45 45 44 44 43
31 31 31 31 32 32 30 32 29 28 29 29 30 30 31 32 33 33 34 34 34 34 35 36 37 39 39 39 41 41 43 44 46 47 47 47 46 45 47 47 47 48 47 46 45 44 44 43 43
32 31 31 32 32 32 30 31 30 28 29 29 30 31 31 32 32 32 32 33 33 33 34 36 37 38 39 39 40 40 41 43 44 45 45 45 45 45 47 46 46 47 47 46 45 44 44 44 43
31 31 32 32 32 32 31 31 31 29 29 29 31 32 32 32 31 32 32 32 33 33 33 35 35 36 37 38 39 39 40 41 43 44 44 44 45 45 46 47 47 47 46 46 46 44 45 45 44
31 30 31 32 33 32 31 31 31 31 30 30 31 32 32 31 31 31 31 31 32 32 33 33 35 35 36 37 38 39 40 41 42 44 44 44 44 43 43 45 46 47 47 47 47 46 45 45 46
32 31 30 32 33 32 31 31 31 31 31 31 31 31 31 30 31 31 31 30 31 31 31 32 34 34 35 36 38 38 39 40 41 43 44 43 43 43 43 43 45 46 47 48 48 48 47 46 45
32 32 31 31 32 33 32 32 32 31 31 32 33 32 31 30 30 30 31 30 30 30 30 31 33 34 35 36 37 38 39 40 41 41 42 41 41 43 44 43 45 47 47 47 48 49 48 47 46
32 32 31 31 31 33 34 33 33 32 31 33 34 33 32 31 30 30 31 31 31 31 31 31 32 34 35 36 37 37 38 39 40 41 41 42 41 43 43 44 45 47 48 48 48 49 49 48 47
33 32 31 31 31 32 33 33 32 33 33 33 33 33 33 33 31 31 31 30 30 31 31 31 32 33 34 35 36 37 38 39 40 41 41 42 43 44 45 45 46 48 49 49 48 49 49 49 49
Wind_Direction
263 264 266 266 265 265 266 265 265 266 267 267 265 263 262 260 259 257 254 251 250 248 245 242 241 240 240 241 240 241 240 240 240 239 238 235 234 234 234 233 233 233 232 232 233 232 233 233 232
264 265 266 267 266 267 267 267 268 270 269 267 266 264 263 262 261 259 256 253 251 249 247 245 243 242 241 241 243 242 242 242 241 240 241 238 235 236 237 237 237 237 236 234 234 233 233 234 232
266 265 265 267 268 268 268 269 272 271 268 267 266 265 264 263 262 261 258 255 253 250 248 246 245 244 243 242 242 243 242 242 240 240 240 241 239 238 238 238 238 238 238 237 236 236 236 235 235
268 268 267 268 269 269 269 271 272 270 269 267 266 265 265 263 263 262 260 258 255 251 248 247 246 245 244 243 243 243 243 242 242 240 240 239 239 240 240 240 239 239 239 240 238 237 237 238 239
269 270 270 270 271 271 270 271 270 268 268 267 266 266 265 265 264 263 261 259 256 253 249 247 246 245 245 244 244 243 244 244 243 242 241 240 238 240 242 242 241 241 240 240 240 239 238 239 241
270 271 272 273 272 271 271 272 271 267 267 266 267 266 266 266 264 263 262 260 257 254 251 248 247 245 244 244 244 244 244 244 244 243 242 242 242 241 242 242 243 243 243 241 241 240 240 240 242
271 272 273 273 272 271 272 271 271 269 267 267 267 266 266 265 264 263 263 262 259 256 253 250 249 246 244 243 243 245 245 245 245 245 244 243 243 243 242 243 243 243 243 243 243 242 242 243 244
273 273 274 274 273 272 272 271 270 268 267 267 266 266 265 265 264 263 263 262 260 257 254 252 249 248 246 243 243 244 244 245 246 247 246 244 244 245 245 245 244 243 243 243 244 244 244 245 245
275 275 275 275 274 274 273 272 270 268 268 267 266 266 265 265 263 263 263 263 261 259 256 253 251 249 247 245 244 243 244 245 246 247 246 245 245 245 246 246 245 245 244 244 245 245 245 246 246
278 278 278 278 277 276 274 273 271 269 268 267 266 266 265 265 264 263 264 264 263 261 257 253 252 250 248 246 245 244 244 245 245 245 246 246 245 245 245 246 245 245 244 244 245 245 246 247 248
280 281 281 279 278 278 276 274 272 270 268 267 267 267 266 266 265 265 265 265 263 261 258 254 252 250 248 246 245 244 244 244 244 244 245 245 245 245 244 246 246 245 243 244 245 245 246 246 247
282 281 280 279 279 279 278 277 275 273 270 268 268 267 267 266 266 266 265 265 263 261 259 256 252 251 248 247 246 245 245 244 243 244 245 245 245 245 245 245 246 245 244 244 244 246 246 246 247
284 282 281 280 280 280 279 278 276 274 272 270 269 268 266 266 266 266 266 265 263 262 261 258 254 251 249 248 247 246 246 245 244 245 245 245 245 244 244 245 246 246 245 244 245 245 246 246 247
286 284 282 283 283 282 280 278 276 275 273 271 270 269 268 268 266 266 266 265 263 262 261 259 256 252 250 249 248 247 246 246 245 244 244 245 245 244 244 246 246 246 244 245 246 246 247 247 247
287 285 284 283 283 283 282 279 276 276 273 271 271 270 268 268 268 267 266 265 263 262 261 259 256 253 251 249 248 247 246 245 245 245 245 245 245 244 244 246 246 246 244 245 246 246 246 248 248
288 286 284 284 284 284 284 283 280 278 274 272 272 271 270 270 269 268 267 266 264 263 262 260 257 254 252 250 249 248 246 245 245 246 246 245 245 245 245 245 245 244 244 245 246 246 246 248 248
289 288 288 287 287 286 285 285 283 280 275 274 274 273 272 271 270 269 267 266 265 264 262 261 258 256 252 250 249 248 247 245 245 246 246 246 246 246 246 246 244 243 243 244 245 245 245 246 247
293 292 292 291 290 289 288 287 285 280 277 277 277 275 274 273 272 270 268 266 266 265 263 262 259 256 252 250 249 248 248 246 245 246 246 248 247 246 246 245 244 243 243 243 245 245 245 246 246
296 296 295 294 292 290 291 290 287 281 279 279 279 277 275 274 274 272 269 267 267 266 264 262 259 257 253 250 249 249 247 246 245 246 246 246 246 245 244 244 243 243 243 244 246 246 247 247 246
297 297 298 296 294 292 293 291 289 282 279 281 281 278 275 275 274 273 272 270 269 266 264 262 259 256 254 251 250 250 248 246 246 246 246 245 244 244 244 243 242 241 242 243 245 246 247 247 248
297 298 299 299 296 295 295 292 289 283 281 282 282 279 276 276 275 275 273 273 272 267 265 263 259 256 254 252 251 251 250 247 245 245 244 244 242 242 242 242 241 241 242 244 245 246 246 247 247
298 298 299 300 299 297 297 296 292 286 286 286 284 281 278 277 277 278 277 275 273 269 266 263 261 257 255 253 252 251 250 248 246 245 244 242 242 242 242 242 241 241 242 243 245 245 246 246 247
299 299 299 300 301 299 299 297 293 291 289 288 286 284 282 280 279 279 279 278 276 272 268 264 263 260 257 255 253 252 251 248 246 244 243 242 241 242 242 242 240 240 240 242 243 244 244 245 246
300 299 299 300 302 301 300 298 295 294 292 290 288 285 284 281 280 280 279 279 278 276 272 267 265 261 257 256 254 252 251 248 245 243 243 242 242 242 242 242 241 241 240 241 242 243 244 244 245
299 301 302 303 303 303 301 300 299 297 295 293 291 286 285 285 282 281 280 279 279 277 275 270 266 263 259 256 254 251 250 248 245 243 243 243 242 242 242 242 241 240 240 241 242 243 244 243 244
299 301 301 302 302 302 301 300 299 297 297 294 291 288 287 287 284 282 282 281 280 278 277 272 266 263 261 258 254 251 249 248 246 244 244 243 243 242 241 241 240 239 240 241 243 243 243 243 244
299 298 298 299 299 300 299 299 298 298 297 294 292 290 288 286 284 282 281 281 281 279 276 273 267 264 262 259 255 251 249 247 247 246 245 243 243 240 241 242 240 240 240 240 242 244 244 244 244
296 297 297 297 298 298 298 297 298 299 297 294 294 292 288 285 284 282 281 280 279 277 275 273 269 264 262 260 256 252 248 247 247 247 245 245 246 243 243 242 240 240 241 241 242 244 245 245 245
295 295 294 293 294 297 297 298 297 298 298 296 295 294 290 287 285 284 281 279 278 277 274 272 269 266 263 261 257 253 249 248 249 247 246 245 245 245 244 243 241 242 242 243 244 244 244 244 245
294 294 293 292 293 294 295 296 297 296 295 294 294 293 291 287 285 285 284 281 279 278 276 272 269 267 264 261 257 254 251 249 249 248 247 245 246 245 244 244 243 243 243 244 244 245 245 245 246
Height
5802 5803 5803 5803 5804 5804 5804 5805 5805 5806 5807 5807 5807 5807 5808 5808 5809 5812 5812 5811 5812 5814 5815 5817 5818 5820 5821 5822 5824 5825 5826 5827 5828 5830 5831 5832 5833 5834 5836 5837 5838 5839 5840 5842 5843 5844 5845 5845 5846
5799 5799 5800 5800 5799 5799 5800 5801 5801 5802 5803 5803 5803 5803 5804 5804 5804 5805 5806 5807 5808 5809 5811 5812 5814 5815 5817 5818 5820 5821 5822 5823 5825 5827 5828 5829 5830 5832 5833 5834 5836 5837 5838 5839 5840 5841 5843 5844 5845
5795 5795 5796 5795 5795 5796 5797 5797 5797 5797 5797 5798 5798 5798 5799 5800 5799 5800 5801 5802 5803 5804 5806 5807 5809 5810 5812 5814 5815 5817 5818 5820 5821 5823 5825 5826 5827 5829 5830 5831 5833 5834 5835 5837 5838 5839 5840 5841 5843
5791 5791 5791 5791 5791 5792 5792 5792 5792 5792 5792 5793 5793 5793 5794 5794 5794 5794 5795 5796 5798 5799 5800 5802 5803 5805 5807 5809 5811 5813 5814 5816 5817 5819 5821 5822 5823 5825 5826 5828 5829 5831 5832 5834 5835 5837 5838 5839 5840
5785 5785 5785 5785 5785 5787 5787 5786 5786 5786 5786 5786 5787 5787 5788 5788 5788 5788 5789 5790 5791 5792 5794 5795 5797 5799 5801 5803 5805 5807 5809 5811 5812 5814 5816 5817 5818 5820 5822 5824 5826 5827 5829 5830 5832 5833 5835 5836 5837
5780 5780 5780 5779 5780 5780 5781 5780 5780 5780 5780 5780 5780 5780 5781 5781 5781 5781 5782 5783 5784 5785 5787 5789 5790 5792 5794 5797 5799 5801 5804 5805 5807 5809 5811 5813 5814 5816 5818 5820 5821 5823 5825 5827 5828 5830 5831 5833 5834
5775 5774 5773 5773 5773 5773 5774 5773 5773 5772 5773 5773 5772 5773 5774 5774 5774 5774 5774 5775 5776 5777 5779 5781 5783 5785 5787 5790 5792 5794 5797 5799 5801 5803 5806 5808 5810 5811 5813 5815 5817 5819 5821 5823 5824 5826 5827 5829 5830
5767 5767 5766 5766 5765 5766 5767 5766 5765 5764 5765 5765 5764 5764 5766 5766 5766 5766 5766 5767 5768 5769 5771 5773 5775 5777 5779 5782 5784 5787 5790 5792 5795 5797 5799 5801 5804 5806 5808 5809 5812 5814 5816 5818 5820 5821 5823 5824 5826
5760 5761 5759 5759 5758 5758 5758 5757 5757 5756 5756 5756 5756 5756 5757 5757 5757 5757 5758 5758 5759 5760 5762 5763 5766 5768 5771 5773 5776 5779 5782 5785 5787 5790 5792 5795 5797 5799 5802 5804 5806 5808 5810 5812 5814 5816 5818 5820 5821
5753 5753 5753 5752 5750 5749 5749 5748 5747 5747 5747 5747 5747 5747 5747 5747 5748 5749 5749 5749 5750 5751 5752 5753 5756 5758 5761 5764 5767 5770 5773 5776 5779 5782 5784 5787 5790 5792 5795 5797 5799 5802 5804 5806 5809 5810 5812 5814 5816
5746 5746 5745 5743 5742 5740 5740 5739 5738 5737 5737 5738 5738 5738 5738 5738 5738 5739 5739 5740 5740 5741 5742 5743 5745 5748 5751 5754 5757 5760 5764 5767 5770 5773 5776 5779 5782 5785 5788 5790 5793 5795 5797 5800 5802 5804 5807 5809 5811
5738 5737 5736 5735 5733 5732 5730 5730 5729 5728 5729 5729 5729 5729 5729 5728 5728 5729 5729 5730 5730 5731 5732 5733 5735 5737 5740 5743 5747 5750 5754 5758 5761 5764 5767 5770 5774 5777 5780 5783 5786 5788 5790 5793 5796 5798 5800 5803 5804
5731 5729 5728 5726 5725 5723 5722 5720 5719 5719 5719 5719 5719 5719 5719 5719 5719 5719 5719 5719 5719 5720 5721 5722 5724 5726 5729 5732 5736 5739 5743 5747 5751 5754 5758 5761 5765 5768 5771 5774 5778 5780 5783 5786 5789 5791 5793 5796 5798
5723 5721 5720 5718 5717 5715 5713 5711 5710 5710 5710 5710 5709 5709 5709 5708 5708 5708 5708 5708 5708 5709 5710 5711 5712 5715 5718 5721 5725 5728 5732 5736 5740 5744 5748 5751 5755 5759 5762 5765 5769 5772 5775 5778 5781 5784 5786 5788 5791
5714 5713 5712 5711 5709 5706 5704 5703 5702 5700 5700 5700 5699 5698 5698 5698 5698 5698 5698 5698 5698 5698 5699 5700 5701 5703 5706 5710 5713 5716 5720 5724 5729 5733 5737 5741 5744 5748 5752 5756 5759 5763 5766 5769 5772 5775 5778 5780 5783
5708 5706 5704 5703 5700 5698 5697 5695 5693 5691 5691 5690 5689 5688 5688 5688 5687 5687 5687 5687 5687 5687 5688 5688 5689 5692 5695 5698 5701 5704 5708 5712 5717 5721 5725 5729 5733 5737 5741 5745 5749 5753 5756 5760 5763 5767 5769 5772 5775
5701 5698 5696 5695 5693 5690 5688 5686 5685 5682 5681 5681 5680 5679 5678 5678 5677 5676 5676 5676 5676 5676 5676 5677 5678 5680 5682 5686 5689 5692 5696 5700 5705 5709 5713 5717 5721 5725 5730 5734 5738 5742 5746 5750 5754 5757 5760 5763 5766
5694 5691 5689 5687 5685 5682 5680 5678 5676 5673 5672 5672 5670 5669 5668 5668 5667 5666 5665 5665 5664 5664 5664 5665 5665 5667 5670 5673 5676 5680 5683 5688 5693 5697 5701 5705 5708 5713 5717 5722 5726 5730 5735 5739 5743 5747 5750 5753 5757
5687 5685 5682 5680 5677 5674 5672 5669 5667 5665 5663 5662 5661 5659 5658 5658 5657 5655 5654 5654 5653 5652 5652 5652 5653 5655 5658 5661 5664 5667 5671 5676 5680 5685 5689 5693 5696 5700 5705 5709 5714 5718 5724 5728 5733 5737 5740 5743 5747
5680 5678 5675 5673 5669 5666 5664 5661 5659 5657 5655 5653 5651 5650 5649 5648 5647 5646 5644 5643 5642 5641 5641 5641 5642 5644 5646 5649 5652 5655 5659 5663 5667 5672 5676 5680 5684 5688 5692 5697 5702 5707 5712 5717 5722 5726 5730 5733 5737
5674 5671 5668 5665 5662 5659 5655 5654 5652 5649 5647 5645 5643 5641 5640 5639 5638 5636 5635 5633 5632 5631 5630 5631 5631 5633 5635 5637 5640 5643 5646 5650 5655 5659 5664 5668 5672 5676 5681 5686 5691 5696 5701 5706 5711 5715 5719 5723 5726
5667 5664 5661 5657 5653 5650 5648 5644 5645 5642 5640 5637 5635 5633 5631 5630 5628 5627 5625 5623 5622 5621 5620 5621 5621 5622 5624 5626 5628 5631 5635 5639 5643 5647 5652 5656 5661 5665 5669 5674 5680 5685 5691 5696 5700 5704 5708 5712 5716
5660 5657 5654 5649 5646 5643 5640 5636 5637 5634 5632 5630 5627 5625 5623 5622 5620 5617 5615 5614 5612 5611 5611 5611 5611 5612 5613 5615 5618 5620 5624 5627 5631 5635 5640 5645 5649 5654 5658 5663 5668 5674 5680 5685 5689 5693 5697 5702 5706
5652 5650 5646 5642 5638 5635 5633 5630 5628 5626 5624 5622 5620 5617 5615 5613 5611 5609 5607 5605 5603 5602 5601 5601 5601 5602 5603 5605 5607 5609 5613 5616 5620 5625 5629 5633 5637 5642 5647 5652 5657 5663 5669 5674 5679 5683 5687 5691 5695
5645 5642 5638 5633 5630 5628 5626 5622 5621 5619 5616 5614 5611 5609 5607 5605 5603 5601 5598 5596 5595 5593 5592 5592 5592 5593 5593 5595 5597 5600 5603 5606 5610 5614 5618 5622 5626 5631 5636 5642 5647 5652 5657 5663 5668 5672 5676 5680 5685
5637 5634 5631 5627 5623 5621 5618 5615 5615 5612 5609 5606 5603 5601 5599 5597 5595 5593 5590 5588 5586 5585 5584 5583 5583 5584 5584 5586 5588 5590 5593 5596 5600 5604 5608 5612 5615 5620 5625 5631 5636 5641 5646 5651 5656 5661 5665 5669 5673
5629 5627 5624 5620 5616 5614 5611 5610 5608 5605 5602 5598 5596 5594 5592 5590 5587 5585 5582 5580 5578 5577 5576 5575 5575 5576 5576 5577 5579 5582 5584 5587 5591 5594 5598 5601 5605 5610 5615 5620 5625 5630 5635 5640 5645 5650 5654 5658 5662
5623 5620 5617 5613 5609 5606 5605 5603 5600 5597 5594 5591 5588 5585 5584 5582 5579 5577 5575 5573 5571 5569 5568 5567 5566 5567 5568 5569 5571 5573 5575 5578 5581 5584 5588 5592 5596 5600 5605 5609 5614 5619 5624 5629 5633 5638 5642 5647 5651
5616 5613 5608 5605 5602 5599 5596 5598 5593 5590 5587 5584 5581 5578 5575 5574 5572 5569 5567 5565 5563 5561 5560 5559 5559 5559 5560 5561 5562 5564 5566 5568 5571 5575 5578 5582 5586 5590 5594 5598 5603 5608 5613 5617 5622 5626 5630 5635 5639
5607 5604 5601 5599 5596 5592 5589 5591 5586 5582 5579 5576 5573 5570 5567 5565 5563 5561 5559 5557 5555 5553 5552 5551 5551 5551 5552 5552 5554 5555 5557 5559 5562 5565 5568 5571 5575 5579 5583 5587 5592 5596 5601 5605 5610 5614 5618 5622 5627